DH2PG-6 Weather Reports


time (UTC)temp
F
wind
direction
speed
knots
gust
knots
rain 1hr
in
rain 24hr
in
rain mn
in
humidity
%
barometer
mb
20260502231659 58 180 0.0 0.0 0.00 0.00 0.00 56 1011.9
20260502231159 58 180 0.0 0.0 0.00 0.00 0.00 56 1011.9
20260502230659 58 180 0.0 0.0 0.00 0.00 0.00 55 1011.9
20260502230200 58 157 0.0 0.0 0.00 0.00 0.00 55 1011.9
20260502225658 58 180 0.0 0.0 0.00 0.00 0.00 55 1012.0
20260502225158 59 157 0.0 0.0 0.00 0.00 0.00 55 1012.1
20260502224658 59 157 0.0 0.0 0.00 0.00 0.00 55 1012.1
20260502224158 59 180 0.0 0.0 0.00 0.00 0.00 55 1012.1
20260502223657 59 180 0.0 0.0 0.00 0.00 0.00 55 1012.1
20260502223157 59 157 0.0 0.0 0.00 0.00 0.00 55 1012.2
20260502222657 59 180 0.0 0.0 0.00 0.00 0.00 55 1012.1
20260502222156 59 180 0.0 0.0 0.00 0.00 0.00 55 1012.1
20260502221656 59 180 0.0 0.0 0.00 0.00 0.00 55 1012.1
20260502220656 59 157 0.0 0.0 0.00 0.00 0.00 55 1012.2
20260502220155 59 157 0.0 0.0 0.00 0.00 0.00 55 1012.2
20260502215655 59 180 0.0 0.0 0.00 0.00 0.00 55 1012.3
20260502215155 59 157 0.0 0.0 0.00 0.00 0.00 55 1012.3
20260502214154 59 180 0.0 0.0 0.00 0.00 0.00 55 1012.3
20260502213654 59 157 0.0 0.0 0.00 0.00 0.00 55 1012.3
20260502212153 60 180 0.0 0.0 0.00 0.00 0.00 55 1012.3
20260502211153 60 180 0.0 0.0 0.00 0.00 0.00 55 1012.3
20260502210652 60 180 0.0 0.0 0.00 0.00 0.00 55 1012.3
20260502210152 60 202 0.0 0.0 0.00 0.00 0.00 55 1012.3
20260502205652 60 180 0.0 0.0 0.00 0.00 0.00 55 1012.3
20260502205151 60 180 0.0 0.0 0.00 0.00 0.00 55 1012.4
20260502204651 60 180 0.0 0.0 0.00 0.00 0.00 55 1012.4
20260502204151 60 180 0.0 0.0 0.00 0.00 0.00 56 1012.4
20260502203650 60 180 0.0 0.0 0.00 0.00 0.00 56 1012.4
20260502203150 60 157 0.0 0.0 0.00 0.00 0.00 56 1012.5
20260502202650 61 157 0.0 0.0 0.00 0.00 0.00 56 1012.5
20260502202150 61 180 0.0 0.0 0.00 0.00 0.00 56 1012.4
20260502201649 61 180 0.0 0.0 0.00 0.00 0.00 56 1012.5
20260502201149 61 180 0.0 0.0 0.00 0.00 0.00 56 1012.5
20260502200649 61 157 0.0 0.0 0.00 0.00 0.00 56 1012.6
20260502200149 61 157 0.0 0.0 0.00 0.00 0.00 55 1012.5
20260502194648 62 157 0.0 0.0 0.00 0.00 0.00 55 1012.5
20260502194147 62 180 0.0 0.0 0.00 0.00 0.00 54 1012.6
20260502193647 62 180 0.0 0.0 0.00 0.00 0.00 54 1012.5
20260502193147 62 180 0.0 0.0 0.00 0.00 0.00 54 1012.5
20260502192647 62 180 0.0 0.0 0.00 0.00 0.00 54 1012.4
20260502192146 63 180 0.0 0.0 0.00 0.00 0.00 54 1012.5
20260502191646 63 180 0.0 0.0 0.00 0.00 0.00 54 1012.5
20260502191146 63 157 0.0 0.0 0.00 0.00 0.00 54 1012.5
20260502190645 64 157 0.0 0.0 0.00 0.00 0.00 53 1012.4
20260502190145 64 157 0.0 0.0 0.00 0.00 0.00 53 1012.3
20260502185645 64 180 0.0 0.0 0.00 0.00 0.00 52 1012.3
20260502185145 64 180 0.0 0.0 0.00 0.00 0.00 52 1012.3
20260502184644 65 180 0.0 0.0 0.00 0.00 0.00 52 1012.3
20260502184144 65 180 0.0 0.0 0.00 0.00 0.00 51 1012.3
20260502183644 66 180 0.0 0.0 0.00 0.00 0.00 51 1012.3
20260502183143 66 180 0.0 0.0 0.00 0.00 0.00 51 1012.3
20260502182143 66 157 0.0 0.0 0.00 0.00 0.00 51 1012.3
20260502181643 67 180 0.0 0.0 0.00 0.00 0.00 50 1012.3
20260502181142 67 180 0.0 0.0 0.00 0.00 0.00 50 1012.4
20260502180642 67 180 0.0 0.0 0.00 0.00 0.00 50 1012.3
20260502180142 68 157 0.0 0.0 0.00 0.00 0.00 50 1012.3
20260502170138 70 180 0.0 0.0 0.00 0.00 0.00 49 1012.5
20260502164137 70 157 0.0 0.0 0.00 0.00 0.00 51 1012.6
20260502163137 71 157 0.0 0.0 0.00 0.00 0.00 52 1012.7
20260502162636 71 157 0.0 0.0 0.00 0.00 0.00 51 1012.7
20260502162136 71 157 0.0 0.0 0.00 0.00 0.00 51 1013.0
20260502161636 71 157 0.0 0.0 0.00 0.00 0.00 51 1012.9
20260502161136 72 157 0.0 0.0 0.00 0.00 0.00 50 1013.2
20260502160635 72 157 0.0 0.0 0.00 0.00 0.00 50 1013.1
20260502160135 72 180 0.0 0.0 0.00 0.00 0.00 49 1013.1
20260502152133 78 157 0.0 0.0 0.00 0.00 0.00 46 1013.3
20260502151632 78 157 0.0 0.0 0.00 0.00 0.00 45 1013.3
20260502151132 79 135 0.0 0.0 0.00 0.00 0.00 45 1013.4
20260502150632 79 135 0.0 0.0 0.00 0.00 0.00 46 1013.4
20260502150132 79 157 0.0 0.0 0.00 0.00 0.00 46 1013.6
20260502140128 77 157 0.0 0.0 0.00 0.00 0.00 49 1014.4
20260502130625 77 157 0.0 0.0 0.00 0.00 0.00 46 1015.0
20260502130125 77 180 0.0 0.0 0.00 0.00 0.00 47 1015.1
20260502123623 76 157 0.0 0.0 0.00 0.00 0.00 47 1015.5
20260502123123 76 157 0.0 0.0 0.00 0.00 0.00 46 1015.4
20260502122623 76 180 0.0 0.0 0.00 0.00 0.00 47 1015.6
20260502122123 75 135 0.0 0.0 0.00 0.00 0.00 47 1015.5
20260502121622 75 135 0.0 0.0 0.00 0.00 0.00 47 1015.7
20260502121122 75 135 0.0 0.0 0.00 0.00 0.00 48 1015.7
20260502120121 75 157 0.0 0.0 0.00 0.00 0.00 49 1015.9
20260502115621 75 135 0.0 0.0 0.00 0.00 0.00 48 1016.0
20260502115121 75 157 0.0 0.0 0.00 0.00 0.00 49 1016.0
20260502114621 75 157 0.0 0.0 0.00 0.00 0.00 48 1016.0
20260502114120 75 157 0.0 0.0 0.00 0.00 0.00 50 1016.1
20260502113620 74 135 0.0 0.0 0.00 0.00 0.00 50 1016.1
20260502113120 74 135 0.0 0.0 0.00 0.00 0.00 51 1016.3
20260502112619 73 157 0.0 0.0 0.00 0.00 0.00 50 1016.2
20260502112119 73 157 0.0 0.0 0.00 0.00 0.00 50 1016.4
20260502111619 73 157 0.0 0.0 0.00 0.00 0.00 50 1016.4
20260502111119 73 135 0.0 0.0 0.00 0.00 0.00 50 1016.3
20260502110118 73 157 0.0 0.0 0.00 0.00 0.00 50 1016.5
20260502105618 72 157 0.0 0.0 0.00 0.00 0.00 51 1016.6
20260502105117 72 157 0.0 0.0 0.00 0.00 0.00 50 1016.5
20260502104617 72 135 0.0 0.0 0.00 0.00 0.00 49 1016.6
20260502104117 72 135 0.0 0.0 0.00 0.00 0.00 50 1016.6
20260502103617 72 157 0.0 0.0 0.00 0.00 0.00 50 1016.8
20260502103116 71 157 0.0 0.0 0.00 0.00 0.00 51 1016.8
20260502102116 71 157 0.0 0.0 0.00 0.00 0.00 52 1016.7
20260502101615 70 135 0.0 0.0 0.00 0.00 0.00 53 1016.8
20260502101115 70 157 0.0 0.0 0.00 0.00 0.00 53 1016.7
20260502100615 70 135 0.0 0.0 0.00 0.00 0.00 54 1016.7
20260502100115 69 135 0.0 0.0 0.00 0.00 0.00 54 1016.8
20260502090611 66 135 0.0 0.0 0.00 0.00 0.00 54 1017.1
20260502090111 66 157 0.0 0.0 0.00 0.00 0.00 55 1017.1
20260502080108 62 157 0.0 0.0 0.00 0.00 0.00 52 1017.3
20260502071105 62 157 0.0 0.0 0.00 0.00 0.00 49 1017.4
20260502070605 62 157 0.0 0.0 0.00 0.00 0.00 50 1017.4
20260502070104 62 157 0.0 0.0 0.00 0.00 0.00 50 1017.5
20260502065604 62 157 0.0 0.0 0.00 0.00 0.00 50 1017.5
20260502065104 62 157 0.0 0.0 0.00 0.00 0.00 50 1017.5
20260502064103 61 157 0.0 0.0 0.00 0.00 0.00 50 1017.6
20260502063603 61 135 0.0 0.0 0.00 0.00 0.00 50 1017.5
20260502062603 60 180 0.0 0.0 0.00 0.00 0.00 51 1017.7
20260502062102 59 157 0.0 0.0 0.00 0.00 0.00 51 1017.8
20260502061602 58 157 0.0 0.0 0.00 0.00 0.00 52 1017.9
20260502061102 58 157 0.0 0.0 0.00 0.00 0.00 52 1017.8
20260502060601 57 180 0.0 0.0 0.00 0.00 0.00 52 1018.0
20260502055601 57 157 0.0 0.0 0.00 0.00 0.00 52 1018.1
20260502055101 57 202 0.0 0.0 0.00 0.00 0.00 52 1018.3
20260502054600 56 225 0.0 0.0 0.00 0.00 0.00 53 1018.3
20260502054100 56 157 0.0 0.0 0.00 0.00 0.00 53 1018.0
20260502053059 56 157 0.0 0.0 0.00 0.00 0.00 53 1017.8
20260502052559 56 157 0.0 0.0 0.00 0.00 0.00 53 1017.9
20260502052059 55 157 0.0 0.0 0.00 0.00 0.00 53 1017.8
20260502051559 55 135 0.0 0.0 0.00 0.00 0.00 53 1017.8
20260502051058 55 157 0.0 0.0 0.00 0.00 0.00 54 1017.7
20260502050558 54 157 0.0 0.0 0.00 0.00 0.00 54 1017.8
20260502050058 54 157 0.0 0.0 0.00 0.00 0.00 53 1017.8
20260502045557 53 135 0.0 0.0 0.00 0.00 0.00 53 1017.7
20260502045057 53 157 0.0 0.0 0.00 0.00 0.00 53 1017.7
20260502044557 53 157 0.0 0.0 0.00 0.00 0.00 53 1017.6
20260502044057 53 157 0.0 0.0 0.00 0.00 0.00 53 1017.5
20260502043556 52 157 0.0 0.0 0.00 0.00 0.00 53 1017.6
20260502043056 52 157 0.0 0.0 0.00 0.00 0.00 54 1017.4
20260502042556 52 157 0.0 0.0 0.00 0.00 0.00 53 1017.6
20260502042055 52 157 0.0 0.0 0.00 0.00 0.00 53 1017.4
20260502041555 52 180 0.0 0.0 0.00 0.00 0.00 53 1017.4
20260502041055 52 180 0.0 0.0 0.00 0.00 0.00 53 1017.4
20260502040555 52 180 0.0 0.0 0.00 0.00 0.00 53 1017.6
20260502040054 52 180 0.0 0.0 0.00 0.00 0.00 53 1017.7
20260502034554 52 180 0.0 0.0 0.00 0.00 0.00 53 1017.8
20260502033553 52 225 0.0 0.0 0.00 0.00 0.00 53 1017.8
20260502033053 52 180 0.0 0.0 0.00 0.00 0.00 52 1017.7
20260502032052 52 157 0.0 0.0 0.00 0.00 0.00 52 1017.6
20260502031552 52 157 0.0 0.0 0.00 0.00 0.00 51 1017.6
20260502031052 52 135 0.0 0.0 0.00 0.00 0.00 51 1017.7
20260502030551 52 135 0.0 0.0 0.00 0.00 0.00 51 1017.7
20260502030051 52 135 0.0 0.0 0.00 0.00 0.00 51 1017.7
20260502025551 52 135 0.0 0.0 0.00 0.00 0.00 51 1017.8
20260502025050 52 135 0.0 0.0 0.00 0.00 0.00 51 1017.8
20260502024550 52 135 0.0 0.0 0.00 0.00 0.00 50 1017.8
20260502024050 52 135 0.0 0.0 0.00 0.00 0.00 50 1017.8
20260502023550 52 135 0.0 0.0 0.00 0.00 0.00 50 1017.9
20260502023049 52 135 0.0 0.0 0.00 0.00 0.00 50 1017.8
20260502022549 52 135 0.0 0.0 0.00 0.00 0.00 50 1017.8
20260502022049 52 135 0.0 0.0 0.00 0.00 0.00 50 1017.8
20260502021549 52 135 0.0 0.0 0.00 0.00 0.00 50 1017.9
20260502021048 52 135 0.0 0.0 0.00 0.00 0.00 50 1017.9
20260502020548 52 135 0.0 0.0 0.00 0.00 0.00 50 1017.9
20260502020048 52 157 0.0 0.0 0.00 0.00 0.00 50 1017.9
20260502015547 52 157 0.0 0.0 0.00 0.00 0.00 50 1017.9
20260502014547 52 157 0.0 0.0 0.00 0.00 0.00 49 1017.9
20260502013546 52 157 0.0 0.0 0.00 0.00 0.00 49 1017.9
20260502012546 52 135 0.0 0.0 0.00 0.00 0.00 49 1018.1
20260502012045 52 135 0.0 0.0 0.00 0.00 0.00 49 1018.1
20260502011545 53 135 0.0 0.0 0.00 0.00 0.00 49 1018.1
20260502011045 53 135 0.0 0.0 0.00 0.00 0.00 48 1018.1
20260502010545 53 135 0.0 0.0 0.00 0.00 0.00 48 1018.2
20260502005544 53 135 0.0 0.0 0.00 0.00 0.00 48 1018.2
20260502005044 53 135 0.0 0.0 0.00 0.00 0.00 48 1018.2
20260502004543 53 135 0.0 0.0 0.00 0.00 0.00 48 1018.2
20260502004043 53 135 0.0 0.0 0.00 0.00 0.00 48 1018.3
20260502003543 53 135 0.0 0.0 0.00 0.00 0.00 48 1018.4
20260502003043 53 135 0.0 0.0 0.00 0.00 0.00 48 1018.4
20260502002542 53 135 0.0 0.0 0.00 0.00 0.00 48 1018.5
20260502001542 53 135 0.0 0.0 0.00 0.00 0.00 48 1018.5
20260502001041 53 135 0.0 0.0 0.00 0.00 0.00 47 1018.5
20260502000541 53 135 0.0 0.0 0.00 0.00 0.00 47 1018.6
20260502000041 53 157 0.0 0.0 0.00 0.00 0.00 47 1018.7
20260501235541 53 157 0.0 0.0 0.00 0.00 0.00 47 1018.7
20260501235040 53 157 0.0 0.0 0.00 0.00 0.00 47 1018.7
20260501234540 53 157 0.0 0.0 0.00 0.00 0.00 47 1018.8
20260501234040 54 157 0.0 0.0 0.00 0.00 0.00 46 1018.8
20260501233539 54 157 0.0 0.0 0.00 0.00 0.00 46 1018.8
20260501233039 54 157 0.0 0.0 0.00 0.00 0.00 46 1018.8
20260501232539 54 157 0.0 0.0 0.00 0.00 0.00 45 1018.8
20260501232039 55 157 0.0 0.0 0.00 0.00 0.00 45 1018.9